Year,Month,Day,Hour,Minute,Value (Times are PST for temperature in C)
2014,08,18,00,00,18.70
2014,08,18,00,01,18.70
2014,08,18,00,02,18.60
2014,08,18,00,03,18.60
2014,08,18,00,04,18.60
2014,08,18,00,05,18.60
2014,08,18,00,06,18.60
2014,08,18,00,07,18.50
2014,08,18,00,08,18.50
2014,08,18,00,09,18.50
2014,08,18,00,10,18.40
2014,08,18,00,11,18.40
2014,08,18,00,12,18.40
2014,08,18,00,13,18.40
2014,08,18,00,14,18.30
2014,08,18,00,15,18.30
2014,08,18,00,16,18.30
2014,08,18,00,17,18.30
2014,08,18,00,18,18.30
2014,08,18,00,19,18.20
2014,08,18,00,20,18.20
2014,08,18,00,21,18.20
2014,08,18,00,22,18.20
2014,08,18,00,23,18.20
2014,08,18,00,24,18.20
2014,08,18,00,25,18.10
2014,08,18,00,26,18.10
2014,08,18,00,27,18.10
2014,08,18,00,28,18.10
2014,08,18,00,29,18.10
2014,08,18,00,30,18.10
2014,08,18,00,31,18.10
2014,08,18,00,32,18.10
2014,08,18,00,33,18.10
2014,08,18,00,34,18.10
2014,08,18,00,35,18.00
2014,08,18,00,36,18.00
2014,08,18,00,37,18.00
2014,08,18,00,38,18.00
2014,08,18,00,39,18.00
2014,08,18,00,40,18.00
2014,08,18,00,41,18.00
2014,08,18,00,42,18.00
2014,08,18,00,43,17.90
2014,08,18,00,44,17.90
2014,08,18,00,45,17.90
2014,08,18,00,46,17.90
2014,08,18,00,47,17.90
2014,08,18,00,48,17.90
2014,08,18,00,49,17.90
2014,08,18,00,50,17.90
2014,08,18,00,51,17.90
2014,08,18,00,52,17.90
2014,08,18,00,53,17.90
2014,08,18,00,54,17.90
2014,08,18,00,55,17.90
2014,08,18,00,56,17.90
2014,08,18,00,57,17.90
2014,08,18,00,58,17.90
2014,08,18,00,59,17.90
2014,08,18,01,00,17.90
2014,08,18,01,01,17.80
2014,08,18,01,02,17.80
2014,08,18,01,03,17.80
2014,08,18,01,04,17.80
2014,08,18,01,05,17.80
2014,08,18,01,06,17.80
2014,08,18,01,07,17.80
2014,08,18,01,08,17.80
2014,08,18,01,09,17.80
2014,08,18,01,10,17.80
2014,08,18,01,11,17.80
2014,08,18,01,12,17.80
2014,08,18,01,13,17.80
2014,08,18,01,14,17.80
2014,08,18,01,15,17.80
2014,08,18,01,16,17.80
2014,08,18,01,17,17.80
2014,08,18,01,18,17.80
2014,08,18,01,19,17.80
2014,08,18,01,20,17.80
2014,08,18,01,21,17.80
2014,08,18,01,22,17.80
2014,08,18,01,23,17.80
2014,08,18,01,24,17.80
2014,08,18,01,25,17.70
2014,08,18,01,26,17.70
2014,08,18,01,27,17.70
2014,08,18,01,28,17.70
2014,08,18,01,29,17.70
2014,08,18,01,30,17.70
2014,08,18,01,31,17.60
2014,08,18,01,32,17.60
2014,08,18,01,33,17.60
2014,08,18,01,34,17.60
2014,08,18,01,35,17.60
2014,08,18,01,36,17.50
2014,08,18,01,37,17.50
2014,08,18,01,38,17.50
2014,08,18,01,39,17.50
2014,08,18,01,40,17.50
2014,08,18,01,41,17.50
2014,08,18,01,42,17.50
2014,08,18,01,43,17.50
2014,08,18,01,44,17.50
2014,08,18,01,45,17.50
2014,08,18,01,46,17.50
2014,08,18,01,47,17.40
2014,08,18,01,48,17.40
2014,08,18,01,49,17.40
2014,08,18,01,50,17.40
2014,08,18,01,51,17.40
2014,08,18,01,52,17.40
2014,08,18,01,53,17.40
2014,08,18,01,54,17.40
2014,08,18,01,55,17.40
2014,08,18,01,56,17.40
2014,08,18,01,57,17.40
2014,08,18,01,58,17.40
2014,08,18,01,59,17.40
2014,08,18,02,00,17.30
2014,08,18,02,01,17.30
2014,08,18,02,02,17.30
2014,08,18,02,03,17.30
2014,08,18,02,04,17.30
2014,08,18,02,05,17.30
2014,08,18,02,06,17.30
2014,08,18,02,07,17.30
2014,08,18,02,08,17.20
2014,08,18,02,09,17.20
2014,08,18,02,10,17.20
2014,08,18,02,11,17.20
2014,08,18,02,12,17.20
2014,08,18,02,13,17.20
2014,08,18,02,14,17.10
2014,08,18,02,15,17.10
2014,08,18,02,16,17.10
2014,08,18,02,17,17.10
2014,08,18,02,18,17.10
2014,08,18,02,19,17.10
2014,08,18,02,20,17.10
2014,08,18,02,21,17.10
2014,08,18,02,22,17.10
2014,08,18,02,23,17.10
2014,08,18,02,24,17.00
2014,08,18,02,25,17.00
2014,08,18,02,26,17.00
2014,08,18,02,27,17.00
2014,08,18,02,28,16.90
2014,08,18,02,29,16.90
2014,08,18,02,30,16.90
2014,08,18,02,31,16.90
2014,08,18,02,32,16.90
2014,08,18,02,33,16.90
2014,08,18,02,34,16.90
2014,08,18,02,35,16.90
2014,08,18,02,36,16.90
2014,08,18,02,37,16.90
2014,08,18,02,38,16.90
2014,08,18,02,39,16.90
2014,08,18,02,40,16.90
2014,08,18,02,41,16.90
2014,08,18,02,42,16.90
2014,08,18,02,43,16.90
2014,08,18,02,44,16.90
2014,08,18,02,45,16.90
2014,08,18,02,46,16.90
2014,08,18,02,47,16.90
2014,08,18,02,48,16.90
2014,08,18,02,49,16.90
2014,08,18,02,50,16.90
2014,08,18,02,51,16.90
2014,08,18,02,52,16.90
2014,08,18,02,53,16.90
2014,08,18,02,54,16.90
2014,08,18,02,55,16.90
2014,08,18,02,56,16.90
2014,08,18,02,57,16.80
2014,08,18,02,58,16.80
2014,08,18,02,59,16.80
2014,08,18,03,00,16.80
2014,08,18,03,01,16.80
2014,08,18,03,02,16.80
2014,08,18,03,03,16.80
2014,08,18,03,04,16.80
2014,08,18,03,05,16.80
2014,08,18,03,06,16.80
2014,08,18,03,07,16.80
2014,08,18,03,08,16.80
2014,08,18,03,09,16.80
2014,08,18,03,10,16.80
2014,08,18,03,11,16.80
2014,08,18,03,12,16.80
2014,08,18,03,13,16.80
2014,08,18,03,14,16.80
2014,08,18,03,15,16.80
2014,08,18,03,16,16.80
2014,08,18,03,17,16.80
2014,08,18,03,18,16.80
2014,08,18,03,19,16.70
2014,08,18,03,20,16.70
2014,08,18,03,21,16.70
2014,08,18,03,22,16.70
2014,08,18,03,23,16.70
2014,08,18,03,24,16.70
2014,08,18,03,25,16.70
2014,08,18,03,26,16.70
2014,08,18,03,27,16.60
2014,08,18,03,28,16.60
2014,08,18,03,29,16.60
2014,08,18,03,30,16.60
2014,08,18,03,31,16.60
2014,08,18,03,32,16.60
2014,08,18,03,33,16.50
2014,08,18,03,34,16.50
2014,08,18,03,35,16.50
2014,08,18,03,36,16.50
2014,08,18,03,37,16.50
2014,08,18,03,38,16.40
2014,08,18,03,39,16.40
2014,08,18,03,40,16.40
2014,08,18,03,41,16.40
2014,08,18,03,42,16.40
2014,08,18,03,43,16.40
2014,08,18,03,44,16.40
2014,08,18,03,45,16.30
2014,08,18,03,46,16.30
2014,08,18,03,47,16.30
2014,08,18,03,48,16.30
2014,08,18,03,49,16.30
2014,08,18,03,50,16.30
2014,08,18,03,51,16.20
2014,08,18,03,52,16.20
2014,08,18,03,53,16.20
2014,08,18,03,54,16.20
2014,08,18,03,55,16.20
2014,08,18,03,56,16.10
2014,08,18,03,57,16.10
2014,08,18,03,58,16.10
2014,08,18,03,59,16.10
2014,08,18,04,00,16.10
2014,08,18,04,01,16.10
2014,08,18,04,02,16.00
2014,08,18,04,03,16.00
2014,08,18,04,04,16.00
2014,08,18,04,05,15.90
2014,08,18,04,06,15.90
2014,08,18,04,07,15.90
2014,08,18,04,08,15.90
2014,08,18,04,09,15.90
2014,08,18,04,10,15.90
2014,08,18,04,11,15.90
2014,08,18,04,12,15.90
2014,08,18,04,13,15.90
2014,08,18,04,14,15.90
2014,08,18,04,15,15.90
2014,08,18,04,16,15.80
2014,08,18,04,17,15.80
2014,08,18,04,18,15.80
2014,08,18,04,19,15.80
2014,08,18,04,20,15.80
2014,08,18,04,21,15.80
2014,08,18,04,22,15.80
2014,08,18,04,23,15.80
2014,08,18,04,24,15.80
2014,08,18,04,25,15.70
2014,08,18,04,26,15.70
2014,08,18,04,27,15.70
2014,08,18,04,28,15.70
2014,08,18,04,29,15.70
2014,08,18,04,30,15.70
2014,08,18,04,31,15.70
2014,08,18,04,32,15.70
2014,08,18,04,33,15.70
2014,08,18,04,34,15.70
2014,08,18,04,35,15.70
2014,08,18,04,36,15.70
2014,08,18,04,37,15.70
2014,08,18,04,38,15.70
2014,08,18,04,39,15.70
2014,08,18,04,40,15.70
2014,08,18,04,41,15.70
2014,08,18,04,42,15.70
2014,08,18,04,43,15.70
2014,08,18,04,44,15.80
2014,08,18,04,45,15.80
2014,08,18,04,46,15.80
2014,08,18,04,47,15.80
2014,08,18,04,48,15.80
2014,08,18,04,49,15.80
2014,08,18,04,50,15.80
2014,08,18,04,51,15.80
2014,08,18,04,52,15.80
2014,08,18,04,53,15.80
2014,08,18,04,54,15.80
2014,08,18,04,55,15.80
2014,08,18,04,56,15.80
2014,08,18,04,57,15.80
2014,08,18,04,58,15.80
2014,08,18,04,59,15.80
2014,08,18,05,00,15.80
2014,08,18,05,01,15.80
2014,08,18,05,02,15.80
2014,08,18,05,03,15.90
2014,08,18,05,04,15.90
2014,08,18,05,05,15.90
2014,08,18,05,06,15.90
2014,08,18,05,07,16.00
2014,08,18,05,08,16.00
2014,08,18,05,09,16.00
2014,08,18,05,10,15.90
2014,08,18,05,11,15.90
2014,08,18,05,12,15.90
2014,08,18,05,13,16.00
2014,08,18,05,14,16.00
2014,08,18,05,15,16.00
2014,08,18,05,16,16.00
2014,08,18,05,17,16.10
2014,08,18,05,18,16.10
2014,08,18,05,19,16.10
2014,08,18,05,20,16.10
2014,08,18,05,21,16.10
2014,08,18,05,22,16.10
2014,08,18,05,23,16.00
2014,08,18,05,24,16.00
2014,08,18,05,25,16.00
2014,08,18,05,26,16.00
2014,08,18,05,27,16.00
2014,08,18,05,28,16.00
2014,08,18,05,29,16.00
2014,08,18,05,30,16.00
2014,08,18,05,31,16.00
2014,08,18,05,32,16.00
2014,08,18,05,33,16.00
2014,08,18,05,34,15.90
2014,08,18,05,35,15.90
2014,08,18,05,36,15.90
2014,08,18,05,37,15.90
2014,08,18,05,38,15.90
2014,08,18,05,39,15.90
2014,08,18,05,40,15.90
2014,08,18,05,41,15.90
2014,08,18,05,42,15.90
2014,08,18,05,43,15.90
2014,08,18,05,44,15.90
2014,08,18,05,45,15.90
2014,08,18,05,46,15.90
2014,08,18,05,47,15.90
2014,08,18,05,48,15.80
2014,08,18,05,49,15.90
2014,08,18,05,50,15.90
2014,08,18,05,51,15.80
2014,08,18,05,52,15.80
2014,08,18,05,53,15.80
2014,08,18,05,54,15.80
2014,08,18,05,55,15.80
2014,08,18,05,56,15.80
2014,08,18,05,57,15.80
2014,08,18,05,58,15.70
2014,08,18,05,59,15.70
2014,08,18,06,00,15.70
2014,08,18,06,01,15.70
2014,08,18,06,02,15.70
2014,08,18,06,03,15.70
2014,08,18,06,04,15.60
2014,08,18,06,05,15.60
2014,08,18,06,06,15.60
2014,08,18,06,07,15.60
2014,08,18,06,08,15.60
2014,08,18,06,09,15.60
2014,08,18,06,10,15.50
2014,08,18,06,11,15.50
2014,08,18,06,12,15.50
2014,08,18,06,13,15.40
2014,08,18,06,14,15.40
2014,08,18,06,15,15.40
2014,08,18,06,16,15.40
2014,08,18,06,17,15.40
2014,08,18,06,18,15.40
2014,08,18,06,19,15.30
2014,08,18,06,20,15.30
2014,08,18,06,21,15.30
2014,08,18,06,22,15.30
2014,08,18,06,23,15.30
2014,08,18,06,24,15.30
2014,08,18,06,25,15.20
2014,08,18,06,26,15.20
2014,08,18,06,27,15.20
2014,08,18,06,28,15.10
2014,08,18,06,29,15.10
2014,08,18,06,30,15.10
2014,08,18,06,31,15.00
2014,08,18,06,32,15.00
2014,08,18,06,33,15.00
2014,08,18,06,34,15.00
2014,08,18,06,35,15.00
2014,08,18,06,36,15.00
2014,08,18,06,37,15.00
2014,08,18,06,38,15.00
2014,08,18,06,39,15.00
2014,08,18,06,40,15.00
2014,08,18,06,41,15.10
2014,08,18,06,42,15.10
2014,08,18,06,43,15.10
2014,08,18,06,44,15.00
2014,08,18,06,45,15.00
2014,08,18,06,46,15.00
2014,08,18,06,47,15.10
2014,08,18,06,48,15.10
2014,08,18,06,49,15.10
2014,08,18,06,50,15.10
2014,08,18,06,51,15.00
2014,08,18,06,52,15.00
2014,08,18,06,53,15.00
2014,08,18,06,54,15.00
2014,08,18,06,55,15.00
2014,08,18,06,56,15.00
2014,08,18,06,57,15.00
2014,08,18,06,58,15.10
2014,08,18,06,59,15.10
2014,08,18,07,00,15.10
2014,08,18,07,01,15.10
2014,08,18,07,02,15.10
2014,08,18,07,03,15.10
2014,08,18,07,04,15.10
2014,08,18,07,05,15.10
2014,08,18,07,06,15.10
2014,08,18,07,07,15.10
2014,08,18,07,08,15.10
2014,08,18,07,09,15.10
2014,08,18,07,10,15.20
2014,08,18,07,11,15.20
2014,08,18,07,12,15.20
2014,08,18,07,13,15.30
2014,08,18,07,14,15.30
2014,08,18,07,15,15.30
2014,08,18,07,16,15.30
2014,08,18,07,17,15.30
2014,08,18,07,18,15.30
2014,08,18,07,19,15.30
2014,08,18,07,20,15.30
2014,08,18,07,21,15.40
2014,08,18,07,22,15.40
2014,08,18,07,23,15.50
2014,08,18,07,24,15.50
2014,08,18,07,25,15.60
2014,08,18,07,26,15.60
2014,08,18,07,27,15.70
2014,08,18,07,28,15.70
2014,08,18,07,29,15.70
2014,08,18,07,30,15.80
2014,08,18,07,31,15.90
2014,08,18,07,32,15.90
2014,08,18,07,33,16.00
2014,08,18,07,34,16.00
2014,08,18,07,35,16.10
2014,08,18,07,36,16.10
2014,08,18,07,37,16.20
2014,08,18,07,38,16.20
2014,08,18,07,39,16.20
2014,08,18,07,40,16.20
2014,08,18,07,41,16.30
2014,08,18,07,42,16.30
2014,08,18,07,43,16.30
2014,08,18,07,44,16.30
2014,08,18,07,45,16.30
2014,08,18,07,46,16.30
2014,08,18,07,47,16.30
2014,08,18,07,48,16.30
2014,08,18,07,49,16.30
2014,08,18,07,50,16.30
2014,08,18,07,51,16.30
2014,08,18,07,52,16.30
2014,08,18,07,53,16.30
2014,08,18,07,54,16.30
2014,08,18,07,55,16.30
2014,08,18,07,56,16.30
2014,08,18,07,57,16.30
2014,08,18,07,58,16.40
2014,08,18,07,59,16.40
2014,08,18,08,00,16.40
2014,08,18,08,01,16.40
2014,08,18,08,02,16.40
2014,08,18,08,03,16.40
2014,08,18,08,04,16.40
2014,08,18,08,05,16.40
2014,08,18,08,06,16.40
2014,08,18,08,07,16.50
2014,08,18,08,08,16.50
2014,08,18,08,09,16.50
2014,08,18,08,10,16.60
2014,08,18,08,11,16.60
2014,08,18,08,12,16.60
2014,08,18,08,13,16.70
2014,08,18,08,14,16.70
2014,08,18,08,15,16.70
2014,08,18,08,16,16.70
2014,08,18,08,17,16.70
2014,08,18,08,18,16.80
2014,08,18,08,19,16.80
2014,08,18,08,20,16.80
2014,08,18,08,21,16.90
2014,08,18,08,22,16.90
2014,08,18,08,23,17.00
2014,08,18,08,24,17.00
2014,08,18,08,25,17.10
2014,08,18,08,26,17.10
2014,08,18,08,27,17.20
2014,08,18,08,28,17.20
2014,08,18,08,29,17.20
2014,08,18,08,30,17.30
2014,08,18,08,31,17.30
2014,08,18,08,32,17.30
2014,08,18,08,33,17.40
2014,08,18,08,34,17.40
2014,08,18,08,35,17.40
2014,08,18,08,36,17.50
2014,08,18,08,37,17.50
2014,08,18,08,38,17.60
2014,08,18,08,39,17.60
2014,08,18,08,40,17.60
2014,08,18,08,41,17.70
2014,08,18,08,42,17.80
2014,08,18,08,43,17.80
2014,08,18,08,44,17.90
2014,08,18,08,45,18.00
2014,08,18,08,46,18.00
2014,08,18,08,47,18.10
2014,08,18,08,48,18.20
2014,08,18,08,49,18.30
2014,08,18,08,50,18.30
2014,08,18,08,51,18.40
2014,08,18,08,52,18.50
2014,08,18,08,53,18.60
2014,08,18,08,54,18.60
2014,08,18,08,55,18.70
2014,08,18,08,56,18.80
2014,08,18,08,57,18.80
2014,08,18,08,58,18.90
2014,08,18,08,59,18.90
2014,08,18,09,00,18.90
2014,08,18,09,01,19.00
2014,08,18,09,02,19.10
2014,08,18,09,03,19.10
2014,08,18,09,04,19.20
2014,08,18,09,05,19.20
2014,08,18,09,06,19.30
2014,08,18,09,07,19.30
2014,08,18,09,08,19.40
2014,08,18,09,09,19.50
2014,08,18,09,10,19.50
2014,08,18,09,11,19.60
2014,08,18,09,12,19.60
2014,08,18,09,13,19.70
2014,08,18,09,14,19.70
2014,08,18,09,15,19.80
2014,08,18,09,16,19.80
2014,08,18,09,17,19.90
2014,08,18,09,18,19.90
2014,08,18,09,19,19.90
2014,08,18,09,20,20.00
2014,08,18,09,21,20.00
2014,08,18,09,22,20.00
2014,08,18,09,23,20.10
2014,08,18,09,24,20.10
2014,08,18,09,25,20.20
2014,08,18,09,26,20.20
2014,08,18,09,27,20.30
2014,08,18,09,28,20.30
2014,08,18,09,29,20.30
2014,08,18,09,30,20.40
2014,08,18,09,31,20.40
2014,08,18,09,32,20.40
2014,08,18,09,33,20.40
2014,08,18,09,34,20.50
2014,08,18,09,35,20.50
2014,08,18,09,36,20.60
2014,08,18,09,37,20.60
2014,08,18,09,38,20.60
2014,08,18,09,39,20.70
2014,08,18,09,40,20.70
2014,08,18,09,41,20.70
2014,08,18,09,42,20.80
2014,08,18,09,43,20.80
2014,08,18,09,44,20.80
2014,08,18,09,45,20.80
2014,08,18,09,46,20.80
2014,08,18,09,47,20.90
2014,08,18,09,48,20.90
2014,08,18,09,49,21.00
2014,08,18,09,50,21.00
2014,08,18,09,51,21.00
2014,08,18,09,52,21.10
2014,08,18,09,53,21.10
2014,08,18,09,54,21.20
2014,08,18,09,55,21.20
2014,08,18,09,56,21.30
2014,08,18,09,57,21.30
2014,08,18,09,58,21.30
2014,08,18,09,59,21.40
2014,08,18,10,00,21.40
2014,08,18,10,01,21.50
2014,08,18,10,02,21.50
2014,08,18,10,03,21.60
2014,08,18,10,04,21.60
2014,08,18,10,05,21.70
2014,08,18,10,06,21.80
2014,08,18,10,07,21.80
2014,08,18,10,08,21.90
2014,08,18,10,09,21.90
2014,08,18,10,10,22.00
2014,08,18,10,11,22.00
2014,08,18,10,12,22.10
2014,08,18,10,13,22.10
2014,08,18,10,14,22.20
2014,08,18,10,15,22.30
2014,08,18,10,16,22.30
2014,08,18,10,17,22.40
2014,08,18,10,18,22.50
2014,08,18,10,19,22.60
2014,08,18,10,20,22.70
2014,08,18,10,21,22.80
2014,08,18,10,22,22.90
2014,08,18,10,23,23.10
2014,08,18,10,24,23.20
2014,08,18,10,25,23.20
2014,08,18,10,26,23.30
2014,08,18,10,27,23.30
2014,08,18,10,28,23.40
2014,08,18,10,29,23.40
2014,08,18,10,30,23.50
2014,08,18,10,31,23.60
2014,08,18,10,32,23.60
2014,08,18,10,33,23.70
2014,08,18,10,34,23.80
2014,08,18,10,35,23.80
2014,08,18,10,36,23.80
2014,08,18,10,37,23.90
2014,08,18,10,38,23.90
2014,08,18,10,39,23.90
2014,08,18,10,40,24.00
2014,08,18,10,41,24.00
2014,08,18,10,42,24.00
2014,08,18,10,43,24.00
2014,08,18,10,44,24.00
2014,08,18,10,45,23.90
2014,08,18,10,46,23.90
2014,08,18,10,47,23.90
2014,08,18,10,48,24.00
2014,08,18,10,49,24.00
2014,08,18,10,50,24.00
2014,08,18,10,51,24.00
2014,08,18,10,52,24.00
2014,08,18,10,53,24.00
2014,08,18,10,54,24.10
2014,08,18,10,55,24.10
2014,08,18,10,56,24.20
2014,08,18,10,57,24.20
2014,08,18,10,58,24.30
2014,08,18,10,59,24.40
2014,08,18,11,00,24.40
2014,08,18,11,01,24.40
2014,08,18,11,02,24.40
2014,08,18,11,03,24.40
2014,08,18,11,04,24.40
2014,08,18,11,05,24.40
2014,08,18,11,06,24.40
2014,08,18,11,07,24.50
2014,08,18,11,08,24.60
2014,08,18,11,09,24.60
2014,08,18,11,10,24.70
2014,08,18,11,11,24.70
2014,08,18,11,12,24.80
2014,08,18,11,13,24.80
2014,08,18,11,14,24.80
2014,08,18,11,15,24.80
2014,08,18,11,16,24.80
2014,08,18,11,17,24.90
2014,08,18,11,18,24.90
2014,08,18,11,19,24.90
2014,08,18,11,20,25.00
2014,08,18,11,21,25.00
2014,08,18,11,22,24.90
2014,08,18,11,23,24.80
2014,08,18,11,24,24.80
2014,08,18,11,25,24.80
2014,08,18,11,26,24.80
2014,08,18,11,27,24.80
2014,08,18,11,28,24.90
2014,08,18,11,29,24.90
2014,08,18,11,30,25.00
2014,08,18,11,31,25.10
2014,08,18,11,32,25.20
2014,08,18,11,33,25.20
2014,08,18,11,34,25.30
2014,08,18,11,35,25.30
2014,08,18,11,36,25.20
2014,08,18,11,37,25.20
2014,08,18,11,38,25.20
2014,08,18,11,39,25.20
2014,08,18,11,40,25.20
2014,08,18,11,41,25.20
2014,08,18,11,42,25.20
2014,08,18,11,43,25.20
2014,08,18,11,44,25.20
2014,08,18,11,45,25.30
2014,08,18,11,46,25.30
2014,08,18,11,47,25.40
2014,08,18,11,48,25.40
2014,08,18,11,49,25.50
2014,08,18,11,50,25.60
2014,08,18,11,51,25.70
2014,08,18,11,52,25.80
2014,08,18,11,53,25.80
2014,08,18,11,54,25.90
2014,08,18,11,55,25.90
2014,08,18,11,56,26.00
2014,08,18,11,57,26.10
2014,08,18,11,58,26.20
2014,08,18,11,59,26.30
2014,08,18,12,00,26.40
2014,08,18,12,01,26.40
2014,08,18,12,02,26.50
2014,08,18,12,03,26.60
2014,08,18,12,04,26.70
2014,08,18,12,05,26.70
2014,08,18,12,06,26.70
2014,08,18,12,07,26.70
2014,08,18,12,08,26.70
2014,08,18,12,09,26.70
2014,08,18,12,10,26.70
2014,08,18,12,11,26.80
2014,08,18,12,12,26.80
2014,08,18,12,13,26.70
2014,08,18,12,14,26.70
2014,08,18,12,15,26.80
2014,08,18,12,16,26.80
2014,08,18,12,17,26.80
2014,08,18,12,18,26.80
2014,08,18,12,19,26.80
2014,08,18,12,20,26.80
2014,08,18,12,21,26.80
2014,08,18,12,22,26.80
2014,08,18,12,23,26.80
2014,08,18,12,24,26.90
2014,08,18,12,25,26.90
2014,08,18,12,26,26.90
2014,08,18,12,27,26.90
2014,08,18,12,28,27.00
2014,08,18,12,29,27.00
2014,08,18,12,30,27.10
2014,08,18,12,31,27.10
2014,08,18,12,32,27.00
2014,08,18,12,33,26.90
2014,08,18,12,34,26.90
2014,08,18,12,35,26.80
2014,08,18,12,36,26.80
2014,08,18,12,37,26.80
2014,08,18,12,38,26.70
2014,08,18,12,39,26.70
2014,08,18,12,40,26.70
2014,08,18,12,41,26.60
2014,08,18,12,42,26.60
2014,08,18,12,43,26.60
2014,08,18,12,44,26.60
2014,08,18,12,45,26.50
2014,08,18,12,46,26.40
2014,08,18,12,47,26.40
2014,08,18,12,48,26.30
2014,08,18,12,49,26.20
2014,08,18,12,50,26.10
2014,08,18,12,51,26.00
2014,08,18,12,52,25.90
2014,08,18,12,53,25.90
2014,08,18,12,54,25.90
2014,08,18,12,55,25.90
2014,08,18,12,56,25.80
2014,08,18,12,57,25.80
2014,08,18,12,58,25.70
2014,08,18,12,59,25.70
2014,08,18,13,00,25.70
2014,08,18,13,01,25.60
2014,08,18,13,02,25.50
2014,08,18,13,03,25.40
2014,08,18,13,04,25.40
2014,08,18,13,05,25.40
2014,08,18,13,06,25.30
2014,08,18,13,07,25.30
2014,08,18,13,08,25.30
2014,08,18,13,09,25.20
2014,08,18,13,10,25.20
2014,08,18,13,11,25.20
2014,08,18,13,12,25.20
2014,08,18,13,13,25.20
2014,08,18,13,14,25.30
2014,08,18,13,15,25.30
2014,08,18,13,16,25.30
2014,08,18,13,17,25.40
2014,08,18,13,18,25.50
2014,08,18,13,19,25.60
2014,08,18,13,20,25.60
2014,08,18,13,21,25.60
2014,08,18,13,22,25.70
2014,08,18,13,23,25.70
2014,08,18,13,24,25.70
2014,08,18,13,25,25.80
2014,08,18,13,26,25.80
2014,08,18,13,27,25.80
2014,08,18,13,28,25.90
2014,08,18,13,29,25.90
2014,08,18,13,30,25.90
2014,08,18,13,31,25.90
2014,08,18,13,32,25.90
2014,08,18,13,33,25.90
2014,08,18,13,34,26.00
2014,08,18,13,35,26.00
2014,08,18,13,36,26.00
2014,08,18,13,37,25.90
2014,08,18,13,38,25.90
2014,08,18,13,39,25.90
2014,08,18,13,40,25.90
2014,08,18,13,41,25.80
2014,08,18,13,42,25.70
2014,08,18,13,43,25.60
2014,08,18,13,44,25.60
2014,08,18,13,45,25.60
2014,08,18,13,46,25.70
2014,08,18,13,47,25.70
2014,08,18,13,48,25.70
2014,08,18,13,49,25.70
2014,08,18,13,50,25.70
2014,08,18,13,51,25.70
2014,08,18,13,52,25.70
2014,08,18,13,53,25.70
2014,08,18,13,54,25.70
2014,08,18,13,55,25.70
2014,08,18,13,56,25.70
2014,08,18,13,57,25.70
2014,08,18,13,58,25.70
2014,08,18,13,59,25.70
2014,08,18,14,00,25.70
2014,08,18,14,01,25.80
2014,08,18,14,02,25.80
2014,08,18,14,03,25.80
2014,08,18,14,04,25.80
2014,08,18,14,05,25.70
2014,08,18,14,06,25.70
2014,08,18,14,07,25.60
2014,08,18,14,08,25.60
2014,08,18,14,09,25.70
2014,08,18,14,10,25.70
2014,08,18,14,11,25.70
2014,08,18,14,12,25.70
2014,08,18,14,13,25.70
2014,08,18,14,14,25.70
2014,08,18,14,15,25.70
2014,08,18,14,16,25.70
2014,08,18,14,17,25.70
2014,08,18,14,18,25.80
2014,08,18,14,19,25.80
2014,08,18,14,20,25.80
2014,08,18,14,21,25.80
2014,08,18,14,22,25.80
2014,08,18,14,23,25.90
2014,08,18,14,24,25.90
2014,08,18,14,25,25.90
2014,08,18,14,26,25.90
2014,08,18,14,27,25.80
2014,08,18,14,28,25.80
2014,08,18,14,29,25.80
2014,08,18,14,30,25.80
2014,08,18,14,31,25.80
2014,08,18,14,32,25.80
2014,08,18,14,33,25.80
2014,08,18,14,34,25.80
2014,08,18,14,35,25.80
2014,08,18,14,36,25.80
2014,08,18,14,37,25.80
2014,08,18,14,38,25.80
2014,08,18,14,39,25.80
2014,08,18,14,40,25.90
2014,08,18,14,41,25.90
2014,08,18,14,42,25.90
2014,08,18,14,43,25.80
2014,08,18,14,44,25.80
2014,08,18,14,45,25.80
2014,08,18,14,46,25.80
2014,08,18,14,47,25.70
2014,08,18,14,48,25.70
2014,08,18,14,49,25.70
2014,08,18,14,50,25.70
2014,08,18,14,51,25.60
2014,08,18,14,52,25.60
2014,08,18,14,53,25.60
2014,08,18,14,54,25.60
2014,08,18,14,55,25.60
2014,08,18,14,56,25.60
2014,08,18,14,57,25.60
2014,08,18,14,58,25.70
2014,08,18,14,59,25.70
2014,08,18,15,00,25.70
2014,08,18,15,01,25.80
2014,08,18,15,02,25.80
2014,08,18,15,03,25.80
2014,08,18,15,04,25.80
2014,08,18,15,05,25.80
2014,08,18,15,06,25.70
2014,08,18,15,07,25.60
2014,08,18,15,08,25.60
2014,08,18,15,09,25.50
2014,08,18,15,10,25.50
2014,08,18,15,11,25.40
2014,08,18,15,12,25.40
2014,08,18,15,13,25.40
2014,08,18,15,14,25.40
2014,08,18,15,15,25.40
2014,08,18,15,16,25.50
2014,08,18,15,17,25.50
2014,08,18,15,18,25.60
2014,08,18,15,19,25.60
2014,08,18,15,20,25.60
2014,08,18,15,21,25.70
2014,08,18,15,22,25.70
2014,08,18,15,23,25.70
2014,08,18,15,24,25.70
2014,08,18,15,25,25.60
2014,08,18,15,26,25.60
2014,08,18,15,27,25.60
2014,08,18,15,28,25.60
2014,08,18,15,29,25.60
2014,08,18,15,30,25.50
2014,08,18,15,31,25.40
2014,08,18,15,32,25.40
2014,08,18,15,33,25.40
2014,08,18,15,34,25.40
2014,08,18,15,35,25.40
2014,08,18,15,36,25.40
2014,08,18,15,37,25.40
2014,08,18,15,38,25.40
2014,08,18,15,39,25.40
2014,08,18,15,40,25.40
2014,08,18,15,41,25.40
2014,08,18,15,42,25.40
2014,08,18,15,43,25.30
2014,08,18,15,44,25.30
2014,08,18,15,45,25.30
2014,08,18,15,46,25.30
2014,08,18,15,47,25.20
2014,08,18,15,48,25.20
2014,08,18,15,49,25.20
2014,08,18,15,50,25.20
2014,08,18,15,51,25.10
2014,08,18,15,52,25.10
2014,08,18,15,53,25.10
2014,08,18,15,54,25.10
2014,08,18,15,55,25.10
2014,08,18,15,56,25.00
2014,08,18,15,57,25.00
2014,08,18,15,58,25.00
2014,08,18,15,59,25.00
2014,08,18,16,00,24.90
2014,08,18,16,01,24.90
2014,08,18,16,02,24.90
2014,08,18,16,03,24.90
2014,08,18,16,04,24.90
2014,08,18,16,05,24.90
2014,08,18,16,06,24.90
2014,08,18,16,07,25.00
2014,08,18,16,08,25.00
2014,08,18,16,09,25.00
2014,08,18,16,10,25.00
2014,08,18,16,11,25.00
2014,08,18,16,12,25.00
2014,08,18,16,13,25.00
2014,08,18,16,14,25.00
2014,08,18,16,15,25.00
2014,08,18,16,16,25.00
2014,08,18,16,17,25.00
2014,08,18,16,18,24.90
2014,08,18,16,19,24.90
2014,08,18,16,20,24.90
2014,08,18,16,21,24.80
2014,08,18,16,22,24.80
2014,08,18,16,23,24.80
2014,08,18,16,24,24.70
2014,08,18,16,25,24.70
2014,08,18,16,26,24.70
2014,08,18,16,27,24.70
2014,08,18,16,28,24.80
2014,08,18,16,29,24.80
2014,08,18,16,30,24.80
2014,08,18,16,31,24.80
2014,08,18,16,32,24.80
2014,08,18,16,33,24.80
2014,08,18,16,34,24.80
2014,08,18,16,35,24.80
2014,08,18,16,36,24.80
2014,08,18,16,37,24.80
2014,08,18,16,38,24.80
2014,08,18,16,39,24.80
2014,08,18,16,40,24.80
2014,08,18,16,41,24.80
2014,08,18,16,42,24.80
2014,08,18,16,43,24.80
2014,08,18,16,44,24.80
2014,08,18,16,45,24.70
2014,08,18,16,46,24.70
2014,08,18,16,47,24.70
2014,08,18,16,48,24.60
2014,08,18,16,49,24.60
2014,08,18,16,50,24.60
2014,08,18,16,51,24.50
2014,08,18,16,52,24.50
2014,08,18,16,53,24.40
2014,08,18,16,54,24.30
2014,08,18,16,55,24.30
2014,08,18,16,56,24.30
2014,08,18,16,57,24.20
2014,08,18,16,58,24.20
2014,08,18,16,59,24.20
2014,08,18,17,00,24.20
2014,08,18,17,01,24.20
2014,08,18,17,02,24.10
2014,08,18,17,03,24.10
2014,08,18,17,04,24.10
2014,08,18,17,05,24.10
2014,08,18,17,06,24.10
2014,08,18,17,07,24.10
2014,08,18,17,08,24.10
2014,08,18,17,09,24.10
2014,08,18,17,10,24.10
2014,08,18,17,11,24.10
2014,08,18,17,12,24.10
2014,08,18,17,13,24.10
2014,08,18,17,14,24.10
2014,08,18,17,15,24.10
2014,08,18,17,16,24.20
2014,08,18,17,17,24.20
2014,08,18,17,18,24.20
2014,08,18,17,19,24.20